Powrót do katalogu

THORAD AGENA D DEB

AktywnySSO
NORAD 4705·DEBRIS·🇺🇸 United States

Wystrzelony Apr 8, 1970 z Vandenberg Space Force Base

Loading…

Następne Przeloty (najbliższe 24 godziny)

TLE

ŚwieżeSource: Space-Track

Epoka: Sep 14, 2026, 08:50 UTC

1 04705U 70025BT  26257.36840370  .00000400  00000-0  60465-3 0  9991
2 04705 100.0554  30.9767 0042132  18.7664   4.7627 13.59071175782427

Śledź THORAD AGENA D DEB w czasie rzeczywistym z AllMySat

Download on the App Store